CW5306 Weather Reports


Display with metric or nautical units.
time (UTC)temp
F
wind
direction
speed
MPH
gust
MPH
rain 1hr
in
rain 24hr
in
rain mn
in
humidity
%
barometer
mb
20260906011440 77 99 11.0 14.0 0.07 0.10 0.10 86 1010.5
20260906010940 78 132 6.0 14.0 0.01 0.04 0.05 84 1010.7
20260906010440 78 123 4.0 14.0 0.00 0.03 0.03 83 1010.3
20260906005939 78 156 3.0 13.0 0.00 0.03 0.03 81 1010.7
20260906005439 79 102 4.0 13.0 0.00 0.03 0.03 80 1010.7
20260906004940 79 144 9.0 11.0 0.00 0.03 0.03 80 1010.6
20260906004441 79 194 8.0 14.0 0.00 0.03 0.03 80 1010.5
20260906004210 79 129 6.0 14.0 0.00 0.03 0.03 80 1010.6
20260906003441 79 114 5.0 15.0 0.00 0.03 0.03 80 1011.0
20260906002940 79 110 6.0 19.0 0.00 0.03 0.03 80 1010.8
20260906002441 79 112 9.0 19.0 0.00 0.03 0.03 78 1011.1
20260906001939 79 92 12.0 20.0 0.00 0.03 0.03 78 1010.6
20260906001710 80 89 8.0 20.0 0.00 0.03 0.03 77 1010.8
20260906001210 81 107 10.0 17.0 0.00 0.03 0.03 78 1010.8
20260906000441 81 71 10.0 17.0 0.00 0.03 0.03 79 1010.8
20260905235939 81 112 12.0 19.0 0.00 0.03 0.03 79 1011.0
20260905235439 81 52 7.0 20.0 0.00 0.03 0.03 79 1011.1
20260905234940 81 124 13.0 20.0 0.00 0.03 0.03 79 1011.0
20260905234440 81 80 9.0 20.0 0.00 0.03 0.03 79 1011.0
20260905233941 81 105 10.0 20.0 0.00 0.03 0.03 79 1011.1
20260905233445 81 54 10.0 17.0 0.00 0.03 0.03 79 1011.1
20260905233439 81 64 12.0 20.0 0.00 0.03 0.03 77 1011.2
20260905232439 81 85 9.0 21.0 0.00 0.03 0.03 79 1011.2
20260905231940 80 98 5.0 21.0 0.01 0.03 0.03 79 1011.3
20260905231441 80 89 9.0 23.0 0.01 0.03 0.03 80 1011.4
20260905230941 80 70 8.0 23.0 0.01 0.03 0.03 79 1011.4
20260905230439 80 106 11.0 19.0 0.01 0.03 0.03 79 1011.3
20260905230210 80 31 9.0 17.0 0.02 0.03 0.03 80 1011.5
20260905225439 80 93 8.0 17.0 0.02 0.03 0.03 81 1011.6
20260905225210 80 109 9.0 19.0 0.02 0.03 0.03 82 1011.6
20260905224440 80 47 7.0 19.0 0.02 0.03 0.03 82 1011.5
20260905223942 79 69 9.0 15.0 0.02 0.03 0.03 85 1011.4
20260905223447 78 54 6.0 15.0 0.02 0.03 0.03 86 1011.8
20260905223441 79 50 9.0 14.0 0.02 0.03 0.03 88 1011.6
20260905222710 78 75 6.0 19.0 0.02 0.03 0.03 87 1011.9
20260905221940 78 88 9.0 21.0 0.02 0.02 0.02 86 1011.8
20260905221439 78 57 5.0 23.0 0.02 0.02 0.02 86 1012.1
20260905220940 79 75 11.0 23.0 0.02 0.02 0.02 85 1012.0
20260905220440 80 69 4.0 16.0 0.01 0.02 0.02 83 1012.0
20260905220210 81 90 10.0 17.0 0.00 0.01 0.01 81 1012.2
20260905215440 81 45 9.0 19.0 0.00 0.01 0.01 80 1012.1
20260905214939 81 103 13.0 19.0 0.00 0.01 0.01 78 1012.1
20260905214711 81 63 8.0 21.0 0.00 0.01 0.01 78 1012.1
20260905213939 82 39 9.0 21.0 0.00 0.01 0.01 77 1012.3
20260905213441 82 80 9.0 17.0 0.00 0.01 0.01 79 1012.1
20260905212945 81 88 5.0 19.0 0.00 0.01 0.01 78 1012.2
20260905212439 82 30 11.0 19.0 0.00 0.01 0.01 77 1012.3
20260905212211 82 101 6.0 17.0 0.00 0.01 0.01 77 1012.5
20260905211439 83 85 6.0 17.0 0.00 0.01 0.01 75 1012.3
20260905210940 83 106 8.0 17.0 0.00 0.01 0.01 76 1012.6
20260905210440 82 66 9.0 21.0 0.00 0.01 0.01 75 1012.3
20260905205941 82 56 11.0 21.0 0.00 0.01 0.01 77 1012.4
20260905205439 82 117 11.0 17.0 0.00 0.01 0.01 76 1012.3
20260905204940 82 53 11.0 19.0 0.00 0.01 0.01 75 1012.4
20260905204439 82 95 6.0 19.0 0.00 0.01 0.01 78 1012.3
20260905204210 82 83 7.0 17.0 0.00 0.01 0.01 77 1012.5
20260905203711 82 65 9.0 17.0 0.00 0.01 0.01 76 1012.6
20260905203210 82 136 9.0 17.0 0.00 0.01 0.01 76 1012.4
20260905202440 82 88 6.0 19.0 0.00 0.01 0.01 77 1012.4
20260905201940 81 63 7.0 19.0 0.00 0.01 0.01 77 1012.5
20260905201440 81 64 9.0 16.0 0.00 0.01 0.01 77 1012.5
20260905200940 81 84 10.0 16.0 0.00 0.01 0.01 77 1012.1
20260905200428 81 57 14.0 17.0 0.00 0.01 0.01 79 1012.5
20260905195929 80 83 9.0 17.0 0.00 0.01 0.01 81 1012.4
20260905195428 79 60 10.0 25.0 0.00 0.01 0.01 80 1012.5
20260905194928 79 63 5.0 25.0 0.00 0.01 0.01 80 1012.4
20260905194429 80 84 14.0 24.0 0.00 0.01 0.01 80 1012.4
20260905193927 80 60 13.0 21.0 0.00 0.01 0.01 80 1012.4
20260905193428 81 23 9.0 20.0 0.00 0.01 0.01 79 1012.6
20260905193148 81 58 13.0 20.0 0.00 0.01 0.01 77 1012.2
20260905192416 81 111 11.0 20.0 0.00 0.01 0.01 77 1012.3
20260905191916 80 39 7.0 23.0 0.00 0.01 0.01 77 1012.5
20260905191647 80 77 12.0 23.0 0.00 0.01 0.01 77 1012.2
20260905190916 80 87 6.0 21.0 0.00 0.01 0.01 78 1012.3
20260905190415 80 39 11.0 21.0 0.00 0.01 0.01 78 1012.3
20260905185903 80 64 8.0 21.0 0.00 0.01 0.01 78 1012.1
20260905185404 80 87 13.0 21.0 0.00 0.01 0.01 78 1012.0
20260905185135 80 54 12.0 21.0 0.00 0.01 0.01 78 1012.0
20260905184404 80 87 10.0 20.0 0.00 0.01 0.01 78 1011.8
20260905183904 79 89 13.0 16.0 0.00 0.01 0.01 80 1011.9
20260905183404 79 102 7.0 13.0 0.00 0.01 0.01 79 1011.8
20260905182903 80 127 7.0 16.0 0.00 0.01 0.01 78 1012.0
20260905182352 80 53 6.0 19.0 0.00 0.01 0.01 78 1011.8
20260905181853 79 97 9.0 19.0 0.00 0.01 0.01 77 1011.8
20260905181339 79 26 6.0 17.0 0.00 0.01 0.01 78 1011.8
20260905181110 80 122 8.0 16.0 0.00 0.01 0.01 77 1011.8
20260905180340 79 105 8.0 16.0 0.00 0.01 0.01 78 1011.7
20260905180111 79 84 4.0 16.0 0.00 0.01 0.01 78 1011.7
20260905175340 79 92 4.0 15.0 0.00 0.01 0.01 80 1011.5
20260905175110 79 82 8.0 16.0 0.00 0.01 0.01 80 1011.8
20260905174340 78 107 7.0 16.0 0.00 0.01 0.01 82 1011.5
20260905174110 78 139 7.0 15.0 0.00 0.01 0.01 81 1011.6
20260905173340 78 69 11.0 20.0 0.00 0.01 0.01 81 1011.4
20260905172842 78 79 9.0 20.0 0.00 0.01 0.01 82 1011.4
20260905172340 78 58 11.0 16.0 0.00 0.01 0.01 81 1011.2
20260905171840 78 66 8.0 16.0 0.00 0.01 0.01 81 1011.5
20260905171345 78 90 8.0 16.0 0.00 0.01 0.01 80 1011.4
20260905171340 78 100 8.0 15.0 0.00 0.01 0.01 81 1011.2
20260905170610 78 74 9.0 16.0 0.00 0.01 0.01 79 1011.5
20260905165839 78 114 4.0 17.0 0.00 0.01 0.01 78 1011.3
20260905165340 78 127 9.0 17.0 0.00 0.01 0.01 80 1011.3
20260905164839 78 70 10.0 16.0 0.00 0.01 0.01 81 1011.1
20260905164625 78 80 7.0 16.0 0.00 0.01 0.01 81 1011.1
20260905164111 77 113 8.0 16.0 0.00 0.01 0.01 82 1011.0
20260905163339 77 81 6.0 21.0 0.00 0.01 0.01 81 1011.0
20260905162839 77 91 10.0 21.0 0.00 0.01 0.01 81 1011.0
20260905162340 77 66 9.0 17.0 0.00 0.01 0.01 80 1011.0
20260905161840 77 105 5.0 15.0 0.00 0.01 0.01 81 1011.0
20260905161340 76 81 8.0 15.0 0.00 0.01 0.01 81 1010.9
20260905160840 76 89 4.0 16.0 0.00 0.01 0.01 82 1011.1
20260905160339 76 116 11.0 16.0 0.00 0.01 0.01 83 1010.8
20260905155840 76 86 10.0 14.0 0.00 0.01 0.01 83 1010.9
20260905155340 76 56 3.0 14.0 0.00 0.01 0.01 83 1011.0
20260905154840 76 93 2.0 14.0 0.00 0.01 0.01 83 1011.2
20260905154339 76 132 5.0 15.0 0.00 0.02 0.01 83 1010.9
20260905154111 76 102 3.0 15.0 0.00 0.02 0.01 83 1011.0
20260905153341 77 98 9.0 14.0 0.00 0.02 0.01 82 1011.1
20260905152839 77 100 9.0 14.0 0.00 0.02 0.01 83 1011.3
20260905152341 77 83 7.0 13.0 0.00 0.02 0.01 82 1011.2
20260905151840 77 108 6.0 14.0 0.00 0.02 0.01 82 1011.2
20260905151611 76 32 9.0 14.0 0.00 0.02 0.01 81 1010.7
20260905150842 76 110 5.0 15.0 0.00 0.02 0.01 81 1010.9
20260905150611 76 85 6.0 15.0 0.00 0.02 0.01 81 1011.0
20260905150117 76 115 4.0 16.0 0.00 0.02 0.01 82 1011.0
20260905145840 76 105 6.0 16.0 0.00 0.02 0.01 81 1011.0
20260905144839 76 49 11.0 16.0 0.00 0.02 0.01 82 1011.1
20260905144340 76 94 12.0 19.0 0.01 0.02 0.01 82 1010.9
20260905143841 76 74 11.0 19.0 0.01 0.02 0.01 82 1010.9
20260905143340 76 108 6.0 17.0 0.01 0.02 0.01 82 1010.9
20260905142845 76 58 12.0 20.0 0.01 0.02 0.01 81 1011.2
20260905142839 76 122 6.0 20.0 0.01 0.02 0.01 82 1011.0
20260905141840 76 78 11.0 19.0 0.01 0.02 0.01 81 1011.0
20260905141611 76 67 4.0 20.0 0.01 0.02 0.01 82 1011.1
20260905140840 76 102 7.0 20.0 0.01 0.02 0.01 81 1011.0
20260905140340 76 102 8.0 20.0 0.01 0.02 0.01 81 1010.9
20260905140110 76 94 7.0 16.0 0.01 0.02 0.01 82 1011.1
20260905135610 76 84 9.0 16.0 0.01 0.02 0.01 83 1010.9
20260905134841 76 95 6.0 19.0 0.01 0.02 0.01 86 1011.0
20260905134340 76 91 10.0 21.0 0.00 0.02 0.00 84 1011.1
20260905134111 76 59 6.0 21.0 0.00 0.02 0.00 84 1011.2
20260905133341 76 72 4.0 17.0 0.00 0.02 0.00 84 1011.3
20260905132840 76 58 6.0 19.0 0.00 0.02 0.00 84 1011.3
20260905132339 76 68 8.0 20.0 0.00 0.02 0.00 84 1011.2
20260905132111 76 43 8.0 20.0 0.00 0.02 0.00 84 1011.1
20260905131340 76 64 7.0 17.0 0.00 0.02 0.00 85 1011.3
20260905130839 76 69 9.0 20.0 0.00 0.02 0.00 85 1011.4
20260905130327 76 55 6.0 20.0 0.00 0.02 0.00 83 1011.3
20260905125827 77 62 9.0 20.0 0.00 0.02 0.00 83 1011.4
20260905125559 77 91 11.0 19.0 0.00 0.02 0.00 81 1011.3
20260905125434 77 60 9.0 20.0 0.00 0.02 0.00 82 1011.2
20260905124558 77 67 10.0 20.0 0.00 0.02 0.00 81 1011.4
20260905123829 77 85 8.0 20.0 0.00 0.02 0.00 81 1011.4
20260905123327 77 40 10.0 20.0 0.00 0.02 0.00 80 1011.2
20260905122828 77 73 8.0 20.0 0.00 0.02 0.00 81 1011.3
20260905122328 77 63 10.0 20.0 0.00 0.02 0.00 81 1011.5
20260905122058 77 96 9.0 20.0 0.00 0.02 0.00 81 1011.3
20260905121604 77 61 5.0 21.0 0.00 0.02 0.00 80 1011.5
20260905121327 77 45 9.0 20.0 0.00 0.02 0.00 80 1011.5
20260905120315 77 54 12.0 19.0 0.00 0.03 0.00 79 1011.8
20260905115815 77 139 14.0 19.0 0.00 0.03 0.00 78 1011.8
20260905115306 77 100 6.0 17.0 0.00 0.03 0.00 79 1011.9
20260905114803 77 100 8.0 17.0 0.00 0.03 0.00 79 1012.0
20260905114303 77 66 3.0 20.0 0.00 0.03 0.00 78 1011.9
20260905113804 77 84 11.0 20.0 0.00 0.03 0.00 79 1012.2
20260905113304 77 52 4.0 19.0 0.00 0.03 0.00 81 1012.1
20260905112804 77 33 10.0 20.0 0.00 0.03 0.00 80 1012.2
20260905112535 77 91 5.0 20.0 0.00 0.03 0.00 80 1011.9
20260905112254 77 72 8.0 20.0 0.00 0.03 0.00 79 1012.1
20260905111253 77 101 13.0 20.0 0.00 0.03 0.00 79 1012.3
20260905110739 77 74 8.0 21.0 0.00 0.03 0.00 80 1012.0
20260905110240 77 71 9.0 23.0 0.00 0.03 0.00 79 1012.3
20260905105740 77 80 8.0 23.0 0.00 0.03 0.00 78 1012.3
20260905105240 77 98 10.0 20.0 0.00 0.03 0.00 78 1012.2
20260905104739 78 145 9.0 29.0 0.00 0.03 0.00 78 1012.4
20260905104241 77 72 13.0 29.0 0.00 0.03 0.00 77 1012.2
20260905103739 78 112 10.0 17.0 0.00 0.03 0.00 78 1012.6
20260905103242 78 91 13.0 20.0 0.00 0.03 0.00 79 1012.6
20260905102741 78 49 9.0 20.0 0.00 0.03 0.00 79 1012.5
20260905102240 78 73 13.0 16.0 0.00 0.03 0.00 79 1012.5
20260905101739 78 95 8.0 17.0 0.00 0.03 0.00 79 1012.5
20260905101239 78 109 11.0 19.0 0.00 0.03 0.00 79 1012.4
20260905100739 77 62 10.0 19.0 0.00 0.03 0.00 78 1012.7
20260905100239 77 59 14.0 19.0 0.00 0.03 0.00 79 1012.8
20260905100011 77 85 13.0 23.0 0.00 0.03 0.03 80 1012.8
20260905095239 77 99 9.0 23.0 0.00 0.03 0.03 79 1012.8
20260905094740 77 77 8.0 19.0 0.00 0.03 0.03 80 1012.9
20260905094240 77 77 8.0 23.0 0.00 0.03 0.03 80 1013.1
20260905093739 77 54 9.0 23.0 0.00 0.03 0.03 80 1013.0
20260905093239 77 79 13.0 23.0 0.00 0.03 0.03 78 1013.3
20260905093010 77 81 12.0 21.0 0.00 0.03 0.03 79 1013.1
20260905092239 78 19 10.0 21.0 0.00 0.03 0.03 80 1013.2
20260905091739 78 56 15.0 19.0 0.00 0.03 0.03 79 1013.1
20260905091511 78 120 6.0 19.0 0.00 0.03 0.03 79 1013.0
20260905090740 78 106 11.0 17.0 0.00 0.03 0.03 79 1013.2
20260905090241 78 73 8.0 23.0 0.00 0.03 0.03 78 1013.4
20260905085742 78 87 11.0 23.0 0.00 0.03 0.03 78 1013.5
20260905085512 78 89 8.0 17.0 0.00 0.03 0.03 79 1013.2
20260905084740 78 87 6.0 17.0 0.00 0.03 0.03 79 1013.4
20260905084241 78 20 10.0 17.0 0.00 0.03 0.03 78 1013.4
20260905083740 78 98 11.0 17.0 0.00 0.03 0.03 78 1013.3
20260905083240 78 125 11.0 17.0 0.00 0.03 0.03 78 1013.6
20260905082741 78 97 4.0 17.0 0.00 0.03 0.03 78 1013.6
20260905082240 78 98 7.0 19.0 0.00 0.03 0.03 78 1013.6
20260905082010 78 50 10.0 21.0 0.00 0.03 0.03 77 1013.5
20260905081255 78 106 8.0 21.0 0.00 0.03 0.03 78 1013.5
20260905080740 78 98 7.0 19.0 0.00 0.04 0.03 78 1013.7
20260905080240 78 78 8.0 20.0 0.00 0.04 0.03 78 1013.7
20260905075739 78 81 8.0 20.0 0.00 0.04 0.03 78 1013.8
20260905075238 78 81 3.0 20.0 0.00 0.04 0.03 79 1013.6
20260905074734 78 89 6.0 21.0 0.00 0.07 0.03 78 1013.6
20260905074728 78 107 7.0 20.0 0.00 0.04 0.03 79 1013.5
20260905073729 78 61 8.0 21.0 0.00 0.07 0.03 78 1013.8
20260905073227 78 120 12.0 20.0 0.00 0.07 0.03 78 1013.7
20260905072728 78 92 11.0 20.0 0.00 0.07 0.03 78 1013.6
20260905072228 78 77 10.0 20.0 0.00 0.07 0.03 78 1013.5
20260905071728 78 78 7.0 20.0 0.00 0.07 0.03 78 1013.6
20260905071228 77 76 9.0 17.0 0.00 0.07 0.03 77 1013.7
20260905070728 78 87 6.0 17.0 0.00 0.07 0.03 78 1013.5
20260905070227 78 82 5.0 17.0 0.00 0.07 0.03 78 1013.5
20260905065727 78 122 7.0 17.0 0.00 0.07 0.03 78 1013.5
20260905065458 78 59 6.0 15.0 0.00 0.07 0.03 78 1013.4
20260905064728 78 56 8.0 16.0 0.00 0.07 0.03 78 1013.4
20260905064228 78 85 12.0 23.0 0.00 0.07 0.03 78 1013.2
20260905063728 78 64 9.0 23.0 0.00 0.07 0.03 77 1013.1
20260905063501 78 111 8.0 17.0 0.00 0.07 0.03 77 1013.0
20260905062729 78 74 10.0 20.0 0.00 0.07 0.03 77 1013.1
20260905062227 78 75 7.0 21.0 0.00 0.07 0.03 77 1013.2
20260905061728 78 55 6.0 21.0 0.00 0.07 0.03 76 1012.9
20260905061228 78 85 5.0 19.0 0.00 0.07 0.03 76 1013.0
20260905060727 78 97 9.0 19.0 0.00 0.07 0.03 76 1012.9
20260905060227 78 62 11.0 17.0 0.00 0.07 0.03 76 1012.9
20260905055729 78 86 11.0 19.0 0.00 0.07 0.03 75 1013.0
20260905055228 78 82 10.0 19.0 0.00 0.07 0.03 74 1013.0
20260905054728 78 78 7.0 17.0 0.00 0.07 0.03 74 1012.7
20260905054458 78 81 4.0 17.0 0.00 0.07 0.03 74 1012.7
20260905053727 78 59 6.0 19.0 0.00 0.07 0.03 74 1012.8
20260905053228 78 98 11.0 19.0 0.00 0.07 0.03 74 1012.9
20260905052728 78 59 9.0 15.0 0.00 0.07 0.03 75 1012.7
20260905052500 78 119 9.0 20.0 0.00 0.07 0.03 75 1012.5
20260905051729 78 104 11.0 20.0 0.00 0.07 0.03 75 1012.4
20260905051227 78 85 11.0 19.0 0.00 0.07 0.03 75 1012.2
20260905050728 78 127 10.0 19.0 0.00 0.07 0.03 73 1012.6
20260905050227 78 97 6.0 19.0 0.00 0.07 0.03 71 1012.4
20260905045728 78 92 2.0 21.0 0.00 0.07 0.03 71 1012.3
20260905045229 78 82 4.0 17.0 0.00 0.07 0.03 70 1012.3
20260905044727 78 106 9.0 20.0 0.00 0.07 0.03 72 1012.3
20260905044227 78 73 8.0 20.0 0.00 0.07 0.03 71 1012.1
20260905043728 78 57 9.0 19.0 0.00 0.07 0.03 72 1012.0
20260905043228 78 68 5.0 16.0 0.00 0.07 0.03 71 1012.0
20260905042728 78 93 0.0 20.0 0.00 0.07 0.03 69 1012.0
20260905042228 78 109 2.0 20.0 0.00 0.07 0.03 70 1011.8
20260905041727 79 91 9.0 16.0 0.00 0.07 0.03 71 1012.0
20260905041458 79 78 8.0 16.0 0.00 0.07 0.03 71 1011.7
20260905041334 79 113 8.0 16.0 0.00 0.07 0.03 71 1011.9
20260905040459 79 65 6.0 19.0 0.00 0.07 0.03 71 1011.7
20260905035729 79 110 0.0 19.0 0.00 0.07 0.03 71 1011.6
20260905035228 79 112 6.0 19.0 0.00 0.07 0.03 70 1011.7
20260905034728 79 102 0.0 16.0 0.00 0.07 0.03 69 1011.7
20260905034228 80 111 6.0 15.0 0.00 0.07 0.03 69 1011.6
20260905034004 80 85 0.0 20.0 0.00 0.07 0.03 70 1011.9
20260905033228 80 105 7.0 20.0 0.00 0.07 0.03 69 1011.5
20260905032729 80 89 9.0 20.0 0.00 0.07 0.03 69 1011.6
20260905032458 80 110 11.0 20.0 0.00 0.07 0.03 69 1011.5
20260905031728 80 93 6.0 17.0 0.00 0.07 0.03 66 1011.6
20260905031229 80 90 4.0 17.0 0.00 0.07 0.03 70 1011.7
20260905030729 80 68 3.0 15.0 0.00 0.07 0.03 68 1011.8
20260905030228 80 78 2.0 17.0 0.00 0.07 0.03 68 1011.6
20260905025729 80 64 1.0 17.0 0.00 0.07 0.03 67 1011.8
20260905025458 80 61 12.0 23.0 0.00 0.07 0.03 68 1011.6
20260905024728 81 66 2.0 23.0 0.00 0.07 0.03 67 1011.7
20260905024228 82 86 8.0 17.0 0.00 0.07 0.03 67 1011.8
20260905023727 81 104 11.0 19.0 0.00 0.07 0.03 66 1011.5
20260905023229 81 37 6.0 20.0 0.00 0.07 0.03 65 1011.6
20260905022727 81 112 13.0 20.0 0.00 0.07 0.03 67 1011.6
20260905022227 81 72 8.0 19.0 0.00 0.07 0.03 67 1011.7
20260905021727 81 127 13.0 17.0 0.00 0.07 0.03 67 1011.6
20260905021227 82 120 13.0 21.0 0.00 0.07 0.03 67 1011.6
20260905020959 82 150 11.0 21.0 0.00 0.07 0.03 67 1011.7
20260905020228 82 64 9.0 17.0 0.00 0.07 0.03 66 1011.6
20260905015728 82 83 10.0 15.0 0.00 0.07 0.03 68 1011.6
20260905015227 82 96 11.0 17.0 0.00 0.07 0.03 66 1011.3
20260905014727 82 74 11.0 17.0 0.00 0.07 0.03 67 1011.6
20260905014227 82 114 9.0 17.0 0.00 0.07 0.03 62 1011.6
20260905013730 82 21 8.0 17.0 0.00 0.07 0.03 64 1011.9
20260905013229 82 53 8.0 24.0 0.00 0.07 0.03 63 1011.6
20260905012729 82 83 9.0 24.0 0.00 0.07 0.03 64 1011.5
20260905012228 82 106 8.0 17.0 0.00 0.07 0.03 65 1011.5
20260905011729 82 66 11.0 16.0 0.00 0.07 0.03 64 1011.7